WD9EKA Weather Reports


time (UTC)temp
C
wind
direction
speed
KPH
gust
KPH
rain 1hr
cm
rain 24hr
cm
rain mn
cm
humidity
%
barometer
mb
20260905205000 35 244 1.6 1.6 0.00 0.00 0.00 56 1006.6
20260905204433 35 281 6.4 8.0 0.00 0.00 0.00 56 1006.3
20260905203920 35 276 6.4 8.0 0.00 0.00 0.00 55 1006.8
20260905202834 35 324 0.0 0.0 0.00 0.00 0.00 58 1007.0
20260905202320 35 338 3.2 4.8 0.00 0.00 0.00 61 1006.8
20260905201800 35 242 3.2 6.4 0.00 0.00 0.00 59 1007.0
20260905201233 35 51 0.0 0.0 0.00 0.00 0.00 57 1006.9
20260905200720 35 52 0.0 1.6 0.00 0.00 0.00 56 1007.0
20260905200200 36 237 4.8 8.0 0.00 0.00 0.00 55 1006.8
20260905195633 35 161 0.0 3.2 0.00 0.00 0.00 57 1007.1
20260905195120 35 260 1.6 4.8 0.00 0.00 0.00 56 1006.9
20260905194600 36 281 4.8 6.4 0.00 0.00 0.00 54 1007.1
20260905194033 36 342 3.2 4.8 0.00 0.00 0.00 54 1007.1
20260905193520 35 157 3.2 4.8 0.00 0.00 0.00 56 1006.9
20260905193000 35 252 6.4 8.0 0.00 0.00 0.00 56 1007.1
20260905191400 35 271 0.0 0.0 0.00 0.00 0.00 57 1007.3
20260905190833 35 333 3.2 4.8 0.00 0.00 0.00 55 1007.3
20260905190320 36 264 4.8 9.7 0.00 0.00 0.00 54 1007.2
20260905185800 35 282 3.2 3.2 0.00 0.00 0.00 55 1007.3
20260905185233 35 264 8.0 9.7 0.00 0.00 0.00 56 1007.4
20260905184720 35 249 3.2 4.8 0.00 0.00 0.00 56 1007.5
20260905183633 35 308 6.4 9.7 0.00 0.00 0.00 55 1007.7
20260905183120 35 234 4.8 6.4 0.00 0.00 0.00 56 1007.5
20260905182600 35 243 3.2 3.2 0.00 0.00 0.00 56 1007.6
20260905182033 35 216 1.6 1.6 0.00 0.00 0.00 58 1007.9
20260905181520 35 248 3.2 4.8 0.00 0.00 0.00 57 1008.0
20260905181000 35 0 0.0 1.6 0.00 0.00 0.00 61 1007.9
20260905180433 35 266 6.4 6.4 0.00 0.00 0.00 62 1008.1
20260905175920 34 18 3.2 6.4 0.00 0.00 0.00 61 1008.0
20260905174833 35 300 3.2 3.2 0.00 0.00 0.00 61 1008.1
20260905174320 34 274 8.0 9.7 0.00 0.00 0.00 62 1008.1
20260905173800 34 236 3.2 4.8 0.00 0.00 0.00 62 1008.1
20260905173233 34 262 3.2 4.8 0.00 0.00 0.00 63 1008.2
20260905172720 35 240 3.2 6.4 0.00 0.00 0.00 62 1008.2
20260905172200 34 273 0.0 0.0 0.00 0.00 0.00 61 1008.3
20260905171633 34 251 6.4 6.4 0.00 0.00 0.00 61 1008.3
20260905171120 34 230 1.6 3.2 0.00 0.00 0.00 62 1008.3
20260905170600 34 215 3.2 4.8 0.00 0.00 0.00 64 1008.5
20260905170033 34 266 4.8 6.4 0.00 0.00 0.00 62 1008.6
20260905165520 34 251 1.6 3.2 0.00 0.00 0.00 65 1008.5
20260905164433 33 251 0.0 1.6 0.00 0.00 0.00 65 1008.5
20260905163904 33 243 0.0 0.0 0.00 0.00 0.00 65 1008.6
20260905163333 33 210 3.2 4.8 0.00 0.00 0.00 64 1008.9
20260905162824 33 163 0.0 1.6 0.00 0.00 0.00 64 1008.8
20260905162306 33 215 1.6 3.2 0.00 0.00 0.00 64 1008.8
20260905161733 33 142 0.0 0.0 0.00 0.00 0.00 64 1008.9
20260905161224 33 94 0.0 0.0 0.00 0.00 0.00 65 1008.9
20260905160705 33 92 0.0 1.6 0.00 0.00 0.00 65 1008.8
20260905155624 32 87 0.0 1.6 0.00 0.00 0.00 69 1008.9
20260905155105 32 87 3.2 3.2 0.00 0.00 0.00 69 1008.9
20260905154533 32 83 0.0 0.0 0.00 0.00 0.00 71 1008.9
20260905154024 31 176 3.2 4.8 0.00 0.00 0.00 71 1008.8
20260905153504 31 141 4.8 6.4 0.00 0.00 0.00 72 1008.8
20260905152933 32 115 0.0 0.0 0.00 0.00 0.00 72 1008.9
20260905152424 31 148 1.6 3.2 0.00 0.00 0.00 70 1009.0
20260905151904 31 111 0.0 3.2 0.00 0.00 0.00 71 1009.1
20260905151333 31 128 3.2 4.8 0.00 0.00 0.00 72 1009.1
20260905150304 31 144 1.6 4.8 0.00 0.00 0.00 73 1009.1
20260905145744 31 42 3.2 4.8 0.00 0.00 0.00 73 1009.2
20260905145233 31 179 0.0 1.6 0.00 0.00 0.00 74 1009.2
20260905144720 31 222 0.0 0.0 0.00 0.00 0.00 76 1009.0
20260905144201 31 222 0.0 0.0 0.00 0.00 0.00 74 1009.0
20260905143633 32 222 0.0 0.0 0.00 0.00 0.00 72 1008.9
20260905143120 31 222 0.0 0.0 0.00 0.00 0.00 73 1008.6
20260905142600 31 222 0.0 0.0 0.00 0.00 0.00 73 1008.9
20260905142033 31 222 0.0 0.0 0.00 0.00 0.00 72 1008.8
20260905141520 30 222 0.0 0.0 0.00 0.00 0.00 73 1008.8
20260905141000 30 223 0.0 1.6 0.00 0.00 0.00 76 1008.8
20260905140433 30 222 0.0 0.0 0.00 0.00 0.00 78 1008.9
20260905135920 29 223 0.0 0.0 0.00 0.00 0.00 78 1008.8
20260905135401 29 223 0.0 0.0 0.00 0.00 0.00 80 1008.8
20260905134833 29 223 0.0 0.0 0.00 0.00 0.00 78 1008.7
20260905134320 28 223 0.0 0.0 0.00 0.00 0.00 79 1008.8
20260905133233 27 223 0.0 0.0 0.00 0.00 0.00 84 1008.6
20260905132633 27 223 0.0 0.0 0.00 0.00 0.00 90 1008.8
20260905131533 26 223 0.0 0.0 0.00 0.00 0.00 98 1008.9
20260905131016 25 223 0.0 0.0 0.00 0.00 0.00 99 1008.9
20260905130456 25 223 0.0 0.0 0.00 0.00 0.00 99 1008.9
20260905125933 25 223 0.0 0.0 0.00 0.00 0.00 99 1008.7
20260905125333 24 223 0.0 0.0 0.00 0.00 0.00 99 1008.8
20260905124733 23 223 0.0 0.0 0.00 0.00 0.00 99 1008.7
20260905124133 23 223 0.0 0.0 0.00 0.00 0.00 99 1009.0
20260905123533 23 223 0.0 0.0 0.00 0.00 0.00 99 1008.8
20260905123033 22 223 0.0 0.0 0.00 0.00 0.00 99 1009.0
20260905122513 22 223 0.0 0.0 0.00 0.00 0.00 99 1008.7
20260905121952 22 223 0.0 0.0 0.00 0.00 0.00 99 1008.9
20260905121433 22 223 0.0 0.0 0.00 0.00 0.00 99 1008.8
20260905120913 22 223 0.0 0.0 0.00 0.00 0.00 99 1008.8
20260905120333 21 223 0.0 0.0 0.00 0.00 0.00 99 1008.4
20260905115733 21 223 0.0 0.0 0.00 0.00 0.00 99 1008.8
20260905115133 21 223 0.0 0.0 0.00 0.00 0.00 99 1008.6
20260905114533 21 223 0.0 0.0 0.00 0.00 0.00 99 1008.5
20260905113933 21 223 0.0 0.0 0.00 0.00 0.00 99 1008.5
20260905112733 21 223 0.0 0.0 0.00 0.00 0.00 99 1008.6
20260905111624 21 223 0.0 0.0 0.00 0.00 0.00 99 1008.5
20260905110533 21 223 0.0 0.0 0.00 0.00 0.00 99 1008.3
20260905110025 21 223 0.0 0.0 0.00 0.00 0.00 99 1008.1
20260905105505 21 223 0.0 0.0 0.00 0.00 0.00 99 1008.4
20260905104933 21 223 0.0 0.0 0.00 0.00 0.00 99 1008.3
20260905103905 21 223 0.0 0.0 0.00 0.00 0.00 99 1008.4
20260905103333 21 223 0.0 0.0 0.00 0.00 0.00 99 1008.3
20260905102733 21 223 0.0 0.0 0.00 0.00 0.00 99 1008.2
20260905102133 21 223 0.0 0.0 0.00 0.00 0.00 99 1008.3
20260905101533 21 223 0.0 0.0 0.00 0.00 0.00 99 1008.2
20260905101016 21 223 0.0 0.0 0.00 0.00 0.00 99 1008.3
20260905095933 21 223 0.0 0.0 0.00 0.00 0.00 99 1008.3
20260905095417 21 223 0.0 0.0 0.00 0.00 0.00 99 1008.3
20260905094333 21 223 0.0 0.0 0.00 0.00 0.00 99 1008.2
20260905093817 22 223 0.0 0.0 0.00 0.00 0.00 99 1008.2
20260905093257 22 223 0.0 0.0 0.00 0.00 0.00 99 1008.2
20260905092733 22 223 0.0 0.0 0.00 0.00 0.00 99 1007.9
20260905092133 22 223 0.0 0.0 0.00 0.00 0.00 99 1008.0
20260905090933 22 223 0.0 0.0 0.00 0.00 0.00 99 1008.0
20260905090333 22 223 0.0 0.0 0.00 0.00 0.00 99 1008.2
20260905085733 22 223 0.0 0.0 0.00 0.00 0.00 99 1008.0
20260905085133 22 223 0.0 0.0 0.00 0.00 0.00 99 1008.1
20260905084533 22 224 0.0 0.0 0.00 0.00 0.00 99 1008.0
20260905083933 22 223 0.0 0.0 0.00 0.00 0.00 99 1008.0
20260905082733 22 214 0.0 0.0 0.00 0.00 0.00 99 1008.2
20260905082133 22 214 0.0 0.0 0.00 0.00 0.00 99 1007.7
20260905081533 22 214 0.0 0.0 0.00 0.00 0.00 99 1007.8
20260905080933 22 214 0.0 0.0 0.00 0.00 0.00 99 1007.7
20260905080333 22 214 0.0 0.0 0.00 0.00 0.00 99 1008.0
20260905075733 22 214 0.0 0.0 0.00 0.00 0.00 99 1007.9
20260905075133 22 214 0.0 0.0 0.00 0.00 0.00 99 1007.8
20260905074533 22 214 0.0 0.0 0.00 0.00 0.00 99 1007.8
20260905073933 22 214 0.0 0.0 0.00 0.00 0.00 99 1007.9
20260905073333 22 214 0.0 0.0 0.00 0.00 0.00 99 1007.9
20260905072733 22 214 0.0 0.0 0.00 0.00 0.00 99 1008.0
20260905072133 22 214 0.0 0.0 0.00 0.00 0.00 99 1007.8
20260905070933 22 214 0.0 0.0 0.00 0.00 0.00 99 1008.1
20260905070433 22 214 0.0 0.0 0.00 0.00 0.00 99 1008.1
20260905065833 22 214 0.0 0.0 0.00 0.00 0.00 99 1008.1
20260905065233 22 214 0.0 0.0 0.00 0.00 0.00 99 1008.0
20260905064133 22 214 0.0 0.0 0.00 0.00 0.00 99 1008.0
20260905063533 22 214 0.0 0.0 0.00 0.00 0.00 99 1008.2
20260905062933 22 214 0.0 0.0 0.00 0.00 0.00 99 1008.2
20260905062333 22 214 0.0 0.0 0.00 0.00 0.00 99 1008.2
20260905061733 22 214 0.0 0.0 0.00 0.00 0.00 99 1008.3
20260905061133 22 214 0.0 0.0 0.00 0.00 0.00 99 1008.6
20260905060617 22 214 0.0 0.0 0.00 0.00 0.00 99 1008.5
20260905060058 22 214 0.0 0.0 0.00 0.00 0.00 99 1008.3
20260905055534 22 214 0.0 0.0 0.00 0.00 0.00 99 1008.3
20260905055033 22 214 0.0 0.0 0.00 0.00 0.00 99 1008.4
20260905054513 22 214 0.0 0.0 0.00 0.00 0.00 99 1008.4
20260905053953 22 214 0.0 0.0 0.00 0.00 0.00 99 1008.3
20260905052913 23 214 0.0 0.0 0.00 0.00 0.00 99 1008.5
20260905052353 22 214 0.0 0.0 0.00 0.00 0.00 99 1008.5
20260905051833 22 214 0.0 0.0 0.00 0.00 0.00 99 1008.5
20260905051313 22 214 0.0 0.0 0.00 0.00 0.00 99 1008.6
20260905050753 22 214 0.0 0.0 0.00 0.00 0.00 99 1008.6
20260905050233 23 214 0.0 0.0 0.00 0.00 0.00 99 1008.5
20260905045713 23 214 0.0 0.0 0.00 0.00 0.00 99 1008.6
20260905045153 23 214 0.0 0.0 0.00 0.00 0.00 99 1008.6
20260905044633 23 214 0.0 0.0 0.00 0.00 0.00 99 1008.6
20260905044113 23 214 0.0 0.0 0.00 0.00 0.00 99 1008.7
20260905043554 23 214 0.0 0.0 0.00 0.00 0.00 99 1008.6
20260905043033 23 214 0.0 0.0 0.00 0.00 0.00 99 1008.6
20260905042514 23 214 0.0 0.0 0.00 0.00 0.00 99 1008.7
20260905041955 23 214 0.0 0.0 0.00 0.00 0.00 99 1008.8
20260905041433 23 214 0.0 0.0 0.00 0.00 0.00 99 1008.6
20260905040913 23 214 0.0 0.0 0.00 0.00 0.00 99 1008.8
20260905040353 23 214 0.0 0.0 0.00 0.00 0.00 99 1008.6
20260905035833 23 214 0.0 0.0 0.00 0.00 0.00 99 1008.8
20260905035313 23 214 0.0 0.0 0.00 0.00 0.00 99 1008.9
20260905034753 23 214 0.0 0.0 0.00 0.00 0.00 99 1008.7
20260905034233 23 214 0.0 0.0 0.00 0.00 0.00 99 1008.8
20260905033713 23 214 0.0 0.0 0.00 0.00 0.00 99 1008.8
20260905033153 23 214 0.0 0.0 0.00 0.00 0.00 99 1008.9
20260905032633 23 214 0.0 0.0 0.00 0.00 0.00 99 1008.8
20260905032114 23 214 0.0 0.0 0.00 0.00 0.00 99 1008.8
20260905031553 23 214 0.0 0.0 0.00 0.00 0.00 99 1009.0
20260905031034 23 214 0.0 0.0 0.00 0.00 0.00 99 1009.0
20260905030514 23 214 0.0 0.0 0.00 0.00 0.00 99 1009.1
20260905025954 23 214 0.0 0.0 0.00 0.00 0.00 99 1008.8
20260905025433 23 214 0.0 0.0 0.00 0.00 0.00 99 1008.8
20260905024914 23 214 0.0 0.0 0.00 0.00 0.00 99 1008.6
20260905024354 23 214 0.0 0.0 0.00 0.00 0.00 99 1008.6
20260905023834 23 214 0.0 0.0 0.00 0.00 0.00 99 1008.5
20260905023234 24 214 0.0 0.0 0.00 0.00 0.00 99 1008.5
20260905022634 24 214 0.0 0.0 0.00 0.00 0.00 99 1008.3
20260905022034 24 214 0.0 0.0 0.00 0.00 0.00 99 1008.3
20260905021434 25 214 0.0 0.0 0.00 0.00 0.00 99 1008.7
20260905020834 25 214 0.0 0.0 0.00 0.00 0.00 98 1008.4
20260905020234 25 214 0.0 0.0 0.00 0.00 0.00 98 1008.7
20260905015730 25 214 0.0 0.0 0.00 0.00 0.00 98 1008.6
20260905015210 25 214 0.0 0.0 0.00 0.00 0.00 98 1008.6
20260905014650 25 214 0.0 0.0 0.00 0.00 0.00 97 1008.5
20260905014133 25 214 0.0 0.0 0.00 0.00 0.00 97 1008.3
20260905013534 25 214 0.0 0.0 0.00 0.00 0.00 97 1008.3
20260905012934 25 214 0.0 0.0 0.00 0.00 0.00 96 1008.1
20260905012334 25 214 0.0 0.0 0.00 0.00 0.00 96 1008.3
20260905011733 25 214 0.0 0.0 0.00 0.00 0.00 96 1008.0
20260905011134 25 214 0.0 0.0 0.00 0.00 0.00 95 1008.2
20260905010534 26 214 0.0 0.0 0.00 0.00 0.00 95 1008.3
20260905010026 26 214 0.0 0.0 0.00 0.00 0.00 94 1007.9
20260905005506 26 214 0.0 0.0 0.00 0.00 0.00 94 1008.1
20260905004946 26 214 0.0 0.0 0.00 0.00 0.00 93 1007.9
20260905004426 26 214 0.0 0.0 0.00 0.00 0.00 92 1007.9
20260905003906 27 214 0.0 0.0 0.00 0.00 0.00 91 1007.9
20260905003346 27 213 0.0 0.0 0.00 0.00 0.00 90 1008.0
20260905002826 27 213 0.0 0.0 0.00 0.00 0.00 89 1007.7
20260905002306 27 213 0.0 0.0 0.00 0.00 0.00 88 1008.0
20260905001746 28 214 0.0 0.0 0.00 0.00 0.00 86 1007.8
20260905001226 28 213 0.0 0.0 0.00 0.00 0.00 84 1007.7
20260905000706 29 213 0.0 0.0 0.00 0.00 0.00 82 1007.8
20260904235626 31 213 0.0 0.0 0.00 0.00 0.00 75 1007.6
20260904235107 31 213 0.0 0.0 0.00 0.00 0.00 73 1007.8
20260904234546 32 213 0.0 0.0 0.00 0.00 0.00 72 1007.5
20260904234026 32 213 0.0 0.0 0.00 0.00 0.00 71 1007.8
20260904233506 33 213 0.0 0.0 0.00 0.00 0.00 68 1007.5
20260904232946 33 213 0.0 0.0 0.00 0.00 0.00 70 1007.8
20260904232426 33 213 0.0 0.0 0.00 0.00 0.00 68 1007.5
20260904231906 33 213 0.0 0.0 0.00 0.00 0.00 67 1007.7
20260904231346 34 213 0.0 0.0 0.00 0.00 0.00 68 1007.6
20260904230826 33 213 0.0 0.0 0.00 0.00 0.00 69 1007.5
20260904230306 33 213 0.0 0.0 0.00 0.00 0.00 69 1007.8
20260904225746 33 213 0.0 0.0 0.00 0.00 0.00 68 1007.8
20260904225226 33 213 0.0 0.0 0.00 0.00 0.00 67 1007.6
20260904224706 34 213 0.0 0.0 0.00 0.00 0.00 66 1007.6
20260904224146 34 213 0.0 0.0 0.00 0.00 0.00 67 1007.6
20260904223626 35 213 0.0 0.0 0.00 0.00 0.00 65 1007.6
20260904222546 35 213 0.0 1.6 0.00 0.00 0.00 62 1007.6
20260904222026 37 213 0.0 1.6 0.00 0.00 0.00 59 1007.6
20260904221506 36 213 1.6 3.2 0.00 0.00 0.00 53 1007.4
20260904220946 36 213 0.0 1.6 0.00 0.00 0.00 49 1007.8
20260904220426 36 213 1.6 1.6 0.00 0.00 0.00 53 1007.8
20260904215906 36 291 1.6 1.6 0.00 0.00 0.00 52 1008.1
20260904215346 36 292 0.0 1.6 0.00 0.00 0.00 56 1008.1
20260904214826 36 253 0.0 1.6 0.00 0.00 0.00 59 1008.0
20260904214306 36 253 0.0 1.6 0.00 0.00 0.00 60 1007.7
20260904213746 36 253 1.6 1.6 0.00 0.00 0.00 60 1007.9
20260904213226 37 254 3.2 4.8 0.00 0.00 0.00 51 1008.0
20260904212706 36 238 1.6 3.2 0.00 0.00 0.00 50 1008.0
20260904212146 37 240 1.6 3.2 0.00 0.00 0.00 50 1007.9
20260904211626 37 211 3.2 4.8 0.00 0.00 0.00 51 1008.0
20260904211106 37 210 0.0 1.6 0.00 0.00 0.00 48 1008.2
20260904210546 37 210 1.6 1.6 0.00 0.00 0.00 50 1008.4
20260904210026 36 210 1.6 3.2 0.00 0.00 0.00 52 1008.4
20260904205506 37 210 1.6 1.6 0.00 0.00 0.00 53 1008.3